Hourly Data Report for March 29, 2003

TORONTO CITY
ONTARIO

43°40'00.000" N
79°24'00.000" W
112.50 m
6158355
71508
XTO

Download Data

Hourly Data (March 2003)
Hourly Data Report for March 29, 2003
TIME
LST
Temp Definition
°C
Dew Point Definition
°C
Rel Hum Definition
%
Precip. Amount Definition
mm

Wind Dir Definition
10's deg

Wind Spd Definition
km/h
Visibility Definition
km
Stn Press Definition
kPa
Hmdx Definition


Wind Chill Definition


Weather Definition


00:00 12.1 7.0 71   LegendMM LegendMM LegendMM 99.02     LegendNANA
01:00 13.4 8.7 73   LegendMM LegendMM LegendMM 99.13     LegendNANA
02:00 13.4 8.5 72   LegendMM LegendMM LegendMM 99.10     LegendNANA
03:00 13.4 9.7 78   LegendMM LegendMM LegendMM 99.16     LegendNANA
04:00 11.6 9.7 88   LegendMM LegendMM LegendMM 99.22     LegendNANA
05:00 10.7 9.6 93   LegendMM LegendMM LegendMM 99.23     LegendNANA
06:00 9.4 8.7 95   LegendMM LegendMM LegendMM 99.30     LegendNANA
07:00 8.0 7.6 97   LegendMM LegendMM LegendMM 99.39     LegendNANA
08:00 7.2 6.8 97   LegendMM LegendMM LegendMM 99.48     LegendNANA
09:00 7.4 6.7 95   LegendMM LegendMM LegendMM 99.50     LegendNANA
10:00 6.2 4.9 91   LegendMM LegendMM LegendMM 99.64     LegendNANA
11:00 5.9 4.9 93   LegendMM LegendMM LegendMM 99.61     LegendNANA
12:00 6.5 3.7 82   LegendMM LegendMM LegendMM 99.73     LegendNANA
13:00 6.9 2.6 74   LegendMM LegendMM LegendMM 99.80     LegendNANA
14:00 6.3 1.6 72   LegendMM LegendMM LegendMM 99.88     LegendNANA
15:00 5.7 1.3 73   LegendMM LegendMM LegendMM 99.94     LegendNANA
16:00 5.7 0.9 71   LegendMM LegendMM LegendMM 99.97     LegendNANA
17:00 4.9 0.1 71   LegendMM LegendMM LegendMM 100.11     LegendNANA
18:00 3.9 -1.6 67   LegendMM LegendMM LegendMM 100.22     LegendNANA
19:00 3.7 -2.4 64   LegendMM LegendMM LegendMM 100.28     LegendNANA
20:00 3.7 -3.2 61   LegendMM LegendMM LegendMM 100.38     LegendNANA
21:00 3.4 -3.9 59   LegendMM LegendMM LegendMM 100.45     LegendNANA
22:00 2.7 -3.7 63   LegendMM LegendMM LegendMM 100.47     LegendNANA
23:00 2.2 -4.4 62   LegendMM LegendMM LegendMM 100.49     LegendNANA

Notes on Data Quality.

Legend

  • E = Estimated
  • M = Missing
  • NA = Not Available*
  • [empty] = Indicates an unobserved value
Date modified: